Location: Unspecified
(47.9110°N, 14.3980°E)
Time: 09:35:04
(UTC+00:00)

COSMOS 2428 - Pass Details

Date: 06 August 2020
Orbit: 844 x 859 km, 70.9° (Epoch: 20 September)

Event Time Altitude Azimuth Distance (km) Brightness Sun altitude
Rises 22:36:59 0° 335° (NNW) 3,432 7.1 -25.3°
Reaches altitude 10° 22:39:36 10° 342° (NNW) 2,495 6.2 -25.4°
Maximum altitude 22:45:01 42° 53° (NE) 1,213 3.7 -25.5°
Enters shadow 22:47:13 30° 100° (E) 1,502 3.8 -25.6°
